DW5274 Weather Reports


Display with metric or nautical units.
time (UTC)temp
F
wind
direction
speed
MPH
gust
MPH
rain 1hr
in
rain 24hr
in
rain mn
in
humidity
%
barometer
mb
20260503213047 80 338 4.0 0.0 0.00 0.00 0.00 26 1007.4
20260503211543 80 266 4.0 0.0 0.00 0.00 0.00 27 1007.7
20260503210039 79 321 3.0 0.0 0.00 0.00 0.00 29 1007.8
20260503204538 78 286 1.0 0.0 0.00 0.00 0.00 31 1008.2
20260503203041 78 306 0.0 0.0 0.00 0.00 0.00 32 1008.4
20260503201535 76 307 0.0 0.0 0.00 0.00 0.00 32 1008.7
20260503200031 76 309 0.0 0.0 0.00 0.00 0.00 35 1008.9
20260503194531 74 310 3.0 0.0 0.00 0.00 0.00 36 1009.1
20260503193014 75 308 2.0 0.0 0.00 0.00 0.00 36 1009.4
20260503191512 75 5 0.0 0.0 0.00 0.00 0.00 35 1009.7
20260503190055 74 5 0.0 0.0 0.00 0.00 0.00 36 1009.9
20260503184611 72 5 0.0 0.0 0.00 0.00 0.00 36 1010.0
20260503183036 71 5 0.0 0.0 0.00 0.00 0.00 38 1010.3
20260503181536 71 5 0.0 0.0 0.00 0.00 0.00 39 1010.5
20260503180018 69 5 0.0 0.0 0.00 0.00 0.00 42 1010.7
20260503174524 68 5 0.0 0.0 0.00 0.00 0.00 42 1010.8
20260503173006 68 5 0.0 0.0 0.00 0.00 0.00 46 1011.0
20260503171509 67 5 0.0 0.0 0.00 0.00 0.00 44 1011.1
20260503081601 52 53 0.0 0.0 0.00 0.00 0.00 67 1010.9
20260503080108 53 53 0.0 0.0 0.00 0.00 0.00 66 1010.9
20260503071517 56 53 0.0 0.0 0.00 0.00 0.00 58 1010.7
20260503054607 61 53 0.0 0.0 0.00 0.00 0.00 46 1010.4
20260503053058 62 53 0.0 0.0 0.00 0.00 0.00 46 1010.3
20260503051538 63 53 0.0 0.0 0.00 0.00 0.00 45 1010.2
20260503050034 65 53 0.0 0.0 0.00 0.00 0.00 42 1010.1
20260503044528 65 53 0.0 0.0 0.00 0.00 0.00 41 1010.1
20260503043021 66 53 0.0 0.0 0.00 0.00 0.00 40 1010.0
20260503041552 67 53 0.0 0.0 0.00 0.00 0.00 38 1009.9
20260503040049 67 53 0.0 0.0 0.00 0.00 0.00 37 1009.8
20260503034531 68 53 0.0 0.0 0.00 0.00 0.00 36 1009.6
20260503033028 69 53 0.0 0.0 0.00 0.00 0.00 36 1009.4
20260503031528 70 53 0.0 0.0 0.00 0.00 0.00 33 1009.2
20260503030021 72 53 0.0 0.0 0.00 0.00 0.00 31 1009.1
20260503024518 73 53 0.0 0.0 0.00 0.00 0.00 31 1009.0
20260503023017 74 53 0.0 0.0 0.00 0.00 0.00 27 1009.0
20260503021516 74 53 0.0 0.0 0.00 0.00 0.00 27 1009.0
20260503020012 75 53 0.0 0.0 0.00 0.00 0.00 25 1009.0
20260503014509 76 53 0.0 0.0 0.00 0.00 0.00 24 1009.0
20260503013009 77 53 0.0 0.0 0.00 0.00 0.00 23 1009.2
20260503011506 77 66 0.0 0.0 0.00 0.00 0.00 23 1009.3
20260503010003 78 69 0.0 0.0 0.00 0.00 0.00 21 1009.3
20260503004600 80 78 0.0 0.0 0.00 0.00 0.00 15 1009.3
20260503003058 81 86 0.0 0.0 0.00 0.00 0.00 17 1009.3
20260503001537 80 88 0.0 0.0 0.00 0.00 0.00 18 1009.4
20260503000052 81 89 0.0 0.0 0.00 0.00 0.00 16 1009.6
20260502234517 80 87 0.0 0.0 0.00 0.00 0.00 19 1009.6
20260502233015 80 71 0.0 0.0 0.00 0.00 0.00 15 1009.7
20260502231503 81 71 0.0 0.0 0.00 0.00 0.00 13 1009.8
20260502230101 82 71 0.0 0.0 0.00 0.00 0.00 16 1010.0
20260502224558 81 76 0.0 0.0 0.00 0.00 0.00 15 1010.2
20260502223057 80 79 0.0 0.0 0.00 0.00 0.00 17 1010.4
20260502221611 81 183 0.0 0.0 0.00 0.00 0.00 15 1010.6
20260502220101 81 180 0.0 0.0 0.00 0.00 0.00 17 1010.8
20260502214552 80 183 0.0 0.0 0.00 0.00 0.00 18 1011.0